Weather History for Mitchell, SD

Change the Weather History Date:

Sunday, October 14, 2012

  Actual Average Record
Temperature  
Mean Temperature 53 °F 51 °F  
Max Temperature 65 °F 63 °F 89 °F (1918)
Min Temperature 40 °F 38 °F 10 °F (1937)
Degree Days  
Heating Degree Days 12 15  
Month to date heating degree days 223 173  
Since 1 July heating degree days 364 331  
Cooling Degree Days 0 0  
Month to date cooling degree days 0 7  
Year to date cooling degree days 1236 824  
Growing Degree Days 2 (Base 50)    
Moisture  
Dew Point 33 °F    
Average Humidity 51    
Maximum Humidity 70    
Minimum Humidity 31    
Precipitation  
Precipitation 0.00 in 0.06 in 2.93 in (2013)
Month to date precipitation T 0.88  
Year to date precipitation 20.36 19.55  
Snow  
Snow 0.00 in - T in (1966)
Month to date snowfall 0.0  
Since 1 July snowfall 0.0  
Since 1 September snowfall 0.0  
Snow Depth 0.00 in    
Sea Level Pressure  
Sea Level Pressure 29.94 in    
Wind  
Wind Speed 9 mph (NNW)    
Max Wind Speed 17 mph    
Max Gust Speed 25 mph    
Visibility 10 miles    
Events      
T = Trace of Precipitation, MM = Missing Value Source: NWS Daily Summary

Daily Weather History Graph

Daily Weather History Graph

Search for Another Location

Airport:

Trip Planner

Search our weather history database for the weather conditions in past years. The results will help you decide how hot, cold, wet, or windy it might be!

Date:

Astronomy

Oct. 14, 2012 Rise Set
Actual Time 7:45 AM CDT 6:49 PM CDT
Civil Twilight 7:16 AM CDT 7:18 PM CDT
Nautical Twilight 6:43 AM CDT 7:51 PM CDT
Astronomical Twilight 6:10 AM CDT 8:24 PM CDT
Moon 6:46 AM CDT (10/14) 6:09 PM CDT (10/14)
Length of Visible Light 12h 01m
Length of Day
11h 03m
Waning Crescent, 1% of the Moon is Illuminated
Oct 14
Waning Crescent
Oct 15
New
Oct 21
First Quarter
Oct 29
Full
Nov 6
Last Quarter

Hourly Weather History & Observations

Time (CDT) Temp. Windchill Dew Point Humidity Pressure Visibility Wind Dir Wind Speed Gust Speed Precip Events Conditions
12:53 AM 48.9 °F - 36.0 °F 61% 29.80 in 10.0 mi NW 13.8 mph - N/A   Clear
1:53 AM 46.9 °F - 36.0 °F 66% 29.83 in 10.0 mi NNW 12.7 mph - N/A   Clear
2:53 AM 48.0 °F - 36.0 °F 63% 29.86 in 10.0 mi NNW 11.5 mph - N/A   Clear
3:53 AM 46.0 °F 40.2 °F 35.1 °F 66% 29.86 in 10.0 mi NW 12.7 mph - N/A   Clear
4:53 AM 46.9 °F - 35.1 °F 63% 29.88 in 10.0 mi NW 11.5 mph - N/A   Clear
5:53 AM 45.0 °F 39.3 °F 33.1 °F 63% 29.92 in 10.0 mi NNW 11.5 mph - N/A   Clear
6:53 AM 42.1 °F 35.2 °F 32.0 °F 67% 29.95 in 10.0 mi NNW 12.7 mph - N/A   Clear
7:53 AM 39.9 °F 32.5 °F 30.9 °F 70% 29.98 in 10.0 mi NW 12.7 mph - N/A   Clear
8:53 AM 43.0 °F 36.4 °F 32.0 °F 65% 29.98 in 10.0 mi NNW 12.7 mph - N/A   Clear
9:53 AM 46.9 °F - 32.0 °F 56% 30.00 in 10.0 mi NNW 13.8 mph - N/A   Clear
10:53 AM 51.1 °F - 30.0 °F 44% 29.99 in 10.0 mi NNW 12.7 mph - N/A   Clear
11:53 AM 55.0 °F - 30.9 °F 40% 29.99 in 10.0 mi North 13.8 mph - N/A   Clear
12:53 PM 59.0 °F - 32.0 °F 36% 29.98 in 10.0 mi North 13.8 mph - N/A   Clear
1:53 PM 60.1 °F - 33.1 °F 36% 29.98 in 10.0 mi NW 16.1 mph 21.9 mph N/A   Clear
2:53 PM 63.0 °F - 33.1 °F 33% 29.96 in 10.0 mi WNW 11.5 mph - N/A   Clear
3:53 PM 64.0 °F - 33.1 °F 31% 29.95 in 10.0 mi NNW 12.7 mph 21.9 mph N/A   Clear
4:53 PM 64.0 °F - 33.1 °F 31% 29.95 in 10.0 mi NNW 11.5 mph - N/A   Clear
5:53 PM 63.0 °F - 33.1 °F 33% 29.95 in 10.0 mi North 6.9 mph - N/A   Clear
6:53 PM 60.1 °F - 34.0 °F 38% 29.96 in 10.0 mi Calm Calm - N/A   Partly Cloudy
7:53 PM 53.1 °F - 33.1 °F 47% 29.96 in 10.0 mi ESE 4.6 mph - N/A   Clear
8:53 PM 52.0 °F - 34.0 °F 50% 29.96 in 10.0 mi SSE 3.5 mph - N/A   Clear
9:53 PM 51.1 °F - 35.1 °F 54% 29.97 in 10.0 mi South 3.5 mph - N/A   Clear
10:53 PM 45.0 °F - 34.0 °F 65% 29.98 in 10.0 mi Calm Calm - N/A   Clear
11:53 PM 41.0 °F - 32.0 °F 70% 29.98 in 10.0 mi Calm Calm - N/A   Clear